Overview Statistics Trail Chart Weather Telemetry Raw packets
 

This is the latest recevied weather packets stored in our database for station/object SV9TNF-54. If no packets are shown the sender has not sent any weather packets the latest 10 day(s).

<< 46 47 48 49 50 51 52 >>
Time Temp. Humidity Pressure Rain* Wind** Luminosity Snow
1788329617 28.33° C 64% 1014.6 hPa 0 mm 4.92 m/s, 159° - -
1788329317 28.33° C 64% 1014.6 hPa 0 mm 4.92 m/s, 159° - -
1788329017 28.33° C 64% 1014.6 hPa 0 mm 4.92 m/s, 159° - -
1788328717 28.89° C 63% 1014.2 hPa 0 mm 3.13 m/s, 131° - -
1788328417 28.89° C 63% 1014.2 hPa 0 mm 3.13 m/s, 131° - -
1788328117 28.89° C 63% 1014.2 hPa 0 mm 3.13 m/s, 131° - -
1788327817 28.89° C 63% 1014.2 hPa 0 mm 3.13 m/s, 131° - -
1788327528 28.89° C 63% 1014.2 hPa 0 mm 3.13 m/s, 131° - -
1788327216 28.89° C 63% 1014.2 hPa 0 mm 3.13 m/s, 131° - -
1788326916 30° C 33% 1014.2 hPa 0 mm 12.96 m/s, 23° - -
1788326616 30° C 33% 1014.2 hPa 0 mm 12.96 m/s, 23° - -
1788326316 30° C 33% 1014.2 hPa 0 mm 12.96 m/s, 23° - -
1788326016 29.44° C 51% 1014.2 hPa 0 mm 9.83 m/s, 88° - -
1788325716 29.44° C 51% 1014.2 hPa 0 mm 9.83 m/s, 88° - -
1788325416 29.44° C 51% 1014.2 hPa 0 mm 9.83 m/s, 88° - -
1788325116 29.44° C 51% 1014.2 hPa 0 mm 9.83 m/s, 88° - -
1788324816 29.44° C 51% 1014.2 hPa 0 mm 9.83 m/s, 88° - -
1788324516 29.44° C 34% 1014.2 hPa 0 mm 12.96 m/s, 71° - -
1788324215 27.78° C 38% 1013.9 hPa 0 mm 9.83 m/s, 356° - -
1788323915 27.78° C 38% 1013.9 hPa 0 mm 9.83 m/s, 356° - -
1788323615 27.78° C 38% 1013.9 hPa 0 mm 9.83 m/s, 356° - -
1788323315 27.78° C 38% 1013.9 hPa 0 mm 9.83 m/s, 356° - -
1788323015 27.78° C 38% 1013.9 hPa 0 mm 9.83 m/s, 356° - -
1788322716 27.78° C 38% 1013.9 hPa 0 mm 9.83 m/s, 356° - -
1788322415 28.33° C 36% 1013.9 hPa 0 mm 6.26 m/s, 59° - -

* Rain latest hour (hover to see other rain measurements)
** Current wind speed in m/s (hover to see current wind gust speed)